Angel Fire, NM

9:10 PM MST on January 18, 2018 (GMT -0700)
Angel Fire

Weather History for KAXX - March, 2014

Change the Weather History Date:

Saturday, March 8, 2014

  Actual Average (KSKX) Record (KSKX)
Temperature  
Mean Temperature 27 °F -  
Max Temperature 37 °F 49 °F 62 °F (2004)
Min Temperature 17 °F 19 °F 8 °F (1998)
Degree Days  
Heating Degree Days 38    
Moisture  
Dew Point 19 °F    
Average Humidity 70    
Maximum Humidity 88    
Minimum Humidity 42    
Precipitation  
Precipitation 0.00 in - - ()
Sea Level Pressure  
Sea Level Pressure 30.26 in    
Wind  
Wind Speed 8 mph (NNE)    
Max Wind Speed 18 mph    
Max Gust Speed 25 mph    
Visibility 10 miles    
Events Snow    
Averages and records for this station are not official NWS values.
T = Trace of Precipitation, MM = Missing Value Source: NWS Daily Summary

Daily Weather History Graph

Daily Weather History Graph

Search for Another Location

Airport or City:

Trip Planner

Search our weather history database for the weather conditions in past years. The results will help you decide how hot, cold, wet, or windy it might be!

Date:

Astronomy

Mar. 08, 2014 Rise Set
Actual Time 6:21 AM MST 6:02 PM MST
Civil Twilight 5:56 AM MST 6:28 PM MST
Nautical Twilight 5:26 AM MST 6:57 PM MST
Astronomical Twilight 4:56 AM MST 7:27 PM MST
Moon 11:15 AM MST (3/8) 12:52 AM MST (3/8)
Length of Visible Light 12h 31m
Length of Day
11h 40m
First Quarter, 52% of the Moon is Illuminated
Mar 8
First Quarter
Mar 16
Full
Mar 23
Last Quarter
Mar 30
New
Apr 7
First Quarter

Hourly Weather History & Observations

Time (MST) Temp. Windchill Dew Point Humidity Pressure Visibility Wind Dir Wind Speed Gust Speed Precip Events Conditions
12:16 AM 26.6 °F 17.5 °F 21.2 °F 80% 30.07 in 10.0 mi North 9.2 mph - N/A   Overcast
12:36 AM 26.6 °F 18.2 °F 21.2 °F 80% 30.07 in 10.0 mi North 8.1 mph - N/A   Overcast
12:56 AM 24.8 °F 16.1 °F 19.4 °F 80% 30.07 in 10.0 mi NNW 8.1 mph - N/A   Mostly Cloudy
1:16 AM 23.0 °F 13.9 °F 19.4 °F 86% 30.07 in 10.0 mi North 8.1 mph - N/A   Mostly Cloudy
1:36 AM 23.0 °F 14.7 °F 17.6 °F 80% 30.08 in 10.0 mi North 6.9 mph - N/A   Scattered Clouds
1:56 AM 23.0 °F 13.9 °F 17.6 °F 80% 30.08 in 10.0 mi North 8.1 mph - N/A   Clear
2:16 AM 21.2 °F - 15.8 °F 80% 30.08 in 10.0 mi Calm Calm - N/A   Clear
2:36 AM 19.4 °F - 15.8 °F 86% 30.10 in 10.0 mi Calm Calm - N/A   Scattered Clouds
2:58 AM 23.0 °F 18.4 °F 17.6 °F 80% 30.10 in 10.0 mi North 3.5 mph - N/A   Mostly Cloudy
3:16 AM 26.6 °F 13.4 °F 17.6 °F 69% 30.10 in 10.0 mi NNE 18.4 mph 25.3 mph N/A   Overcast
3:36 AM 26.6 °F 15.7 °F 17.6 °F 69% 30.11 in 10.0 mi NNE 12.7 mph 25.3 mph N/A   Overcast
3:56 AM 26.6 °F 14.7 °F 17.6 °F 69% 30.12 in 10.0 mi NNE 15.0 mph - N/A   Overcast
4:16 AM 26.6 °F 16.8 °F 17.6 °F 69% 30.13 in 10.0 mi NNE 10.4 mph - N/A   Overcast
4:36 AM 24.8 °F 14.0 °F 19.4 °F 80% 30.14 in 10.0 mi NNE 11.5 mph - N/A   Overcast
4:56 AM 24.8 °F 15.3 °F 19.4 °F 80% 30.15 in 7.0 mi NNE 9.2 mph - N/A   Overcast
5:16 AM 24.8 °F 15.3 °F 19.4 °F 80% 30.16 in 7.0 mi NNE 9.2 mph - N/A   Overcast
5:36 AM 24.8 °F 17.9 °F 19.4 °F 80% 30.17 in 10.0 mi North 5.8 mph - N/A   Overcast
5:56 AM 24.8 °F 19.1 °F 19.4 °F 80% 30.18 in 10.0 mi North 4.6 mph - N/A   Overcast
6:16 AM 24.8 °F 19.1 °F 19.4 °F 80% 30.18 in 10.0 mi NNW 4.6 mph - N/A Snow Light Snow
6:36 AM 24.8 °F 17.9 °F 19.4 °F 80% 30.18 in 10.0 mi NNW 5.8 mph - N/A   Overcast
6:56 AM 24.8 °F 16.9 °F 19.4 °F 80% 30.20 in 10.0 mi North 6.9 mph - N/A   Overcast
7:16 AM 26.6 °F 19.1 °F 19.4 °F 74% 30.20 in 10.0 mi North 6.9 mph - N/A   Overcast
7:36 AM 26.6 °F 16.8 °F 19.4 °F 74% 30.21 in 10.0 mi North 10.4 mph - N/A   Overcast
7:56 AM 26.6 °F 17.5 °F 21.2 °F 80% 30.22 in 4.0 mi North 9.2 mph - N/A Snow Light Snow
8:16 AM 26.6 °F 17.5 °F 21.2 °F 80% 30.23 in 7.0 mi North 9.2 mph - N/A   Overcast
8:36 AM 26.6 °F 19.1 °F 21.2 °F 80% 30.24 in 10.0 mi North 6.9 mph - N/A   Overcast
8:56 AM 28.4 °F 19.7 °F 21.2 °F 74% 30.24 in 10.0 mi North 9.2 mph - N/A   Overcast
9:15 AM 28.8 °F 18.4 °F 20.5 °F 71% 30.25 in 7.0 mi North 12.7 mph - N/A Snow Light Snow
9:16 AM 28.4 °F 18.5 °F 19.4 °F 69% 30.25 in 7.0 mi North 11.5 mph - N/A Snow Light Snow
9:35 AM 29.1 °F 18.9 °F 21.2 °F 72% 30.26 in 7.0 mi North 12.7 mph 19.6 mph N/A Snow Light Snow
9:55 AM 30.9 °F 20.2 °F 21.2 °F 67% 30.27 in 10.0 mi NNE 15.0 mph - N/A   Overcast
10:15 AM 30.4 °F 20.5 °F 21.4 °F 69% 30.27 in 10.0 mi North 12.7 mph - N/A   Overcast
10:35 AM 31.1 °F 22.4 °F 20.7 °F 65% 30.28 in 10.0 mi North 10.4 mph - N/A   Mostly Cloudy
11:00 AM 32.0 °F 23.6 °F 21.9 °F 66% 30.28 in 10.0 mi North 10.4 mph - N/A   Overcast
11:15 AM 31.8 °F 21.8 °F 22.3 °F 68% 30.28 in 10.0 mi North 13.8 mph - N/A   Overcast
11:35 AM 32.5 °F 24.2 °F 23.4 °F 69% 30.29 in 10.0 mi North 10.4 mph - N/A   Mostly Cloudy
11:55 AM 34.2 °F 26.8 °F 20.5 °F 57% 30.29 in 10.0 mi North 9.2 mph 20.7 mph N/A   Overcast
12:15 PM 32.5 °F 26.2 °F 20.1 °F 60% 30.29 in 10.0 mi North 6.9 mph - N/A   Overcast
12:35 PM 32.7 °F 23.4 °F 19.8 °F 59% 30.29 in 10.0 mi NE 12.7 mph 20.7 mph N/A   Overcast
12:55 PM 33.6 °F 25.6 °F 18.1 °F 53% 30.29 in 10.0 mi North 10.4 mph 20.7 mph N/A   Mostly Cloudy
1:15 PM 34.7 °F 26.4 °F 17.2 °F 49% 30.28 in 10.0 mi NE 11.5 mph 16.1 mph N/A   Mostly Cloudy
1:35 PM 35.6 °F 27.5 °F 19.0 °F 51% 30.28 in 10.0 mi ENE 11.5 mph 19.6 mph N/A   Mostly Cloudy
1:55 PM 34.9 °F 26.2 °F 18.5 °F 51% 30.29 in 10.0 mi NE 12.7 mph 17.3 mph N/A   Overcast
2:15 PM 35.2 °F 27.1 °F 14.9 °F 43% 30.29 in 10.0 mi NE 11.5 mph - N/A   Mostly Cloudy
2:35 PM 36.3 °F 28.4 °F 16.0 °F 44% 30.29 in 10.0 mi NNE 11.5 mph - N/A   Mostly Cloudy
2:55 PM 35.6 °F 28.0 °F 15.1 °F 43% 30.29 in 10.0 mi East 10.4 mph - N/A   Mostly Cloudy
3:15 PM 37.2 °F 28.3 °F 15.8 °F 42% 30.29 in 10.0 mi ENE 15.0 mph - N/A   Mostly Cloudy
3:35 PM 36.3 °F 29.5 °F 15.3 °F 42% 30.29 in 10.0 mi NE 9.2 mph - N/A   Scattered Clouds
3:55 PM 35.6 °F - 15.1 °F 43% 30.29 in 10.0 mi Calm Calm - N/A   Clear
4:15 PM 36.5 °F 31.8 °F 15.4 °F 42% 30.29 in 10.0 mi NNE 5.8 mph - N/A   Clear
4:35 PM 36.0 °F 32.1 °F 14.7 °F 42% 30.30 in 10.0 mi ENE 4.6 mph - N/A   Clear
4:55 PM 35.1 °F 32.2 °F 15.1 °F 44% 30.30 in 10.0 mi NE 3.5 mph - N/A   Clear
5:15 PM 34.7 °F 28.1 °F 16.7 °F 48% 30.31 in 10.0 mi East 8.1 mph - N/A   Clear
5:35 PM 34.2 °F 31.2 °F 16.7 °F 49% 30.31 in 10.0 mi ENE 3.5 mph - N/A   Clear
5:55 PM 32.2 °F - 18.9 °F 58% 30.33 in 10.0 mi Calm Calm - N/A   Clear
6:15 PM 28.8 °F - 21.0 °F 73% 30.33 in 10.0 mi Calm Calm - N/A   Clear
6:35 PM 27.5 °F 23.6 °F 20.8 °F 76% 30.34 in 10.0 mi West 3.5 mph - N/A   Clear
6:55 PM 26.6 °F - 20.7 °F 78% 30.34 in 10.0 mi Calm Calm - N/A   Clear
7:15 PM 26.2 °F - 20.3 °F 78% 30.35 in 10.0 mi Calm Calm - N/A   Clear
7:35 PM 25.5 °F - 20.3 °F 81% 30.36 in 10.0 mi Calm Calm - N/A   Clear
7:55 PM 24.4 °F - 19.4 °F 81% 30.37 in 10.0 mi Calm Calm - N/A   Clear
8:15 PM 24.4 °F - 19.2 °F 81% 30.37 in 10.0 mi Calm Calm - N/A   Clear
8:35 PM 23.9 °F - 19.4 °F 83% 30.38 in 10.0 mi Calm Calm - N/A   Clear
8:55 PM 22.3 °F - 18.3 °F 85% 30.39 in 10.0 mi Calm Calm - N/A   Clear
9:15 PM 23.4 °F - 18.1 °F 80% 30.40 in 10.0 mi Calm Calm - N/A   Clear
9:40 PM 20.3 °F - 16.9 °F 87% 30.40 in 10.0 mi Calm Calm - N/A   Clear
9:55 PM 20.7 °F - 17.1 °F 86% 30.40 in 10.0 mi Calm Calm - N/A   Clear
10:15 PM 19.6 °F - 16.0 °F 86% 30.39 in 10.0 mi Calm Calm - N/A   Clear
10:35 PM 20.1 °F - 16.9 °F 87% 30.40 in 10.0 mi Calm Calm - N/A   Clear
10:55 PM 19.4 °F - 16.0 °F 87% 30.39 in 10.0 mi Calm Calm - N/A   Clear
11:15 PM 18.1 °F - 14.9 °F 87% 30.39 in 10.0 mi Calm Calm - N/A   Clear
11:35 PM 17.4 °F - 14.4 °F 88% 30.39 in 10.0 mi Calm Calm - N/A   Clear
11:55 PM 17.2 °F - 14.2 °F 88% 30.40 in 10.0 mi Calm Calm - N/A   Clear